User: anonymous   Login
Location: Albany
(35.0000°S, 118.0000°E)
Time: 06:15:45
(UTC-05:00)
Language:

Radarsat Rocket - Orbit

View from above orbital plane
View from above orbital plane
View from above satellite
View from above satellite

Ground track
Ground track

The orbit data is extracted from the following two-line orbital elements,

1 23711U 95059B   17052.55929105 -.00000037  00000-0  18258-4 0  9992
2 23711 100.5523  43.1614 0367645 220.0797 253.7986 13.12692138 20625
Epoch (UTC): 21 February 2017 13:25:22
Eccentricity: 0.0367645
inclination: 100.5523°
perigee height: 933 km
apogee height: 1492 km
right ascension of ascending node: 43.1614°
argument of perigee: 220.0797°
revolutions per day: 13.12692138
mean anomaly at epoch: 253.7986°
orbit number at epoch: 2062

The dashed part of the orbit path shows where the satellite is in the earth's shadow,  

DLR